Precipitable_Water
0.44 0.43 0.41 0.40 0.42 0.40 0.38 0.38 0.38 0.38 0.39 0.41 0.40 0.38 0.40 0.39 0.41 0.42 0.43 0.44 0.45 0.46 0.47 0.47 0.50 0.53 0.58 0.61 0.66 0.69 0.69 0.59 0.50 0.41 0.35 0.27 0.35 0.37 0.45 0.46 0.47 0.52 0.74 0.82 0.68 0.65 0.64 0.68 0.64 0.75 0.81 0.97 1.02 1.07 1.36 1.43 1.46 1.47 1.14 1.04 0.90 0.99 0.97 1.07 1.01 1.05 1.12 1.06 1.18 1.26 1.33 1.29 1.18 1.36 1.41 1.53 1.46 1.44 1.40 1.38 1.45 1.54 1.51 1.56 1.53 1.58 1.61 1.62
0.43 0.42 0.42 0.42 0.41 0.40 0.40 0.40 0.39 0.41 0.42 0.40 0.39 0.40 0.38 0.37 0.37 0.39 0.41 0.44 0.46 0.46 0.46 0.47 0.48 0.51 0.55 0.60 0.67 0.70 0.66 0.58 0.46 0.43 0.34 0.36 0.37 0.37 0.37 0.46 0.50 0.53 0.70 0.72 0.59 0.57 0.53 0.57 0.60 0.67 0.71 0.75 1.01 0.97 1.30 1.19 1.43 1.15 1.12 1.08 0.88 1.02 1.06 1.20 1.17 1.17 1.11 1.08 1.18 1.26 1.31 1.28 1.22 1.33 1.37 1.23 1.24 1.33 1.25 1.29 1.36 1.36 1.45 1.54 1.53 1.52 1.54 1.54
0.42 0.40 0.39 0.40 0.38 0.36 0.37 0.36 0.37 0.37 0.37 0.38 0.40 0.38 0.36 0.34 0.35 0.35 0.40 0.44 0.46 0.46 0.46 0.46 0.48 0.50 0.53 0.60 0.65 0.69 0.66 0.53 0.49 0.36 0.38 0.46 0.43 0.42 0.37 0.39 0.44 0.54 0.52 0.54 0.61 0.56 0.51 0.51 0.60 0.62 0.66 0.63 0.81 0.88 1.12 1.14 1.24 1.19 1.12 0.94 0.98 1.13 1.14 1.21 1.20 1.16 1.20 1.18 1.16 1.20 1.26 1.27 1.32 1.34 1.45 1.20 1.18 1.28 1.17 1.15 1.25 1.26 1.26 1.36 1.41 1.46 1.48 1.48
0.38 0.38 0.39 0.38 0.36 0.37 0.36 0.37 0.37 0.36 0.38 0.39 0.38 0.37 0.36 0.35 0.34 0.36 0.38 0.40 0.43 0.46 0.45 0.46 0.47 0.49 0.53 0.59 0.64 0.66 0.62 0.52 0.38 0.41 0.46 0.43 0.41 0.40 0.39 0.36 0.43 0.48 0.48 0.58 0.60 0.55 0.54 0.54 0.56 0.56 0.58 0.56 0.65 0.88 0.89 1.08 1.05 1.19 1.14 0.96 0.99 1.13 1.08 1.14 1.22 1.21 1.22 1.23 1.17 1.20 1.28 1.25 1.32 1.36 1.35 1.26 1.20 1.21 1.25 1.33 1.22 1.18 1.24 1.30 1.34 1.38 1.40 1.39
0.39 0.39 0.36 0.36 0.37 0.37 0.36 0.36 0.35 0.37 0.35 0.35 0.36 0.35 0.34 0.35 0.36 0.37 0.38 0.39 0.41 0.43 0.45 0.45 0.47 0.49 0.54 0.61 0.60 0.64 0.51 0.35 0.33 0.43 0.51 0.55 0.48 0.45 0.40 0.37 0.44 0.44 0.39 0.45 0.61 0.65 0.57 0.50 0.53 0.54 0.53 0.49 0.65 0.80 0.85 1.02 1.14 1.13 1.06 1.11 1.14 1.13 1.04 1.15 1.22 1.25 1.23 1.26 1.22 1.22 1.15 1.16 1.41 1.37 1.29 1.27 1.10 1.11 1.22 1.32 1.36 1.32 1.34 1.29 1.28 1.31 1.35 1.33
0.37 0.36 0.36 0.36 0.35 0.35 0.35 0.35 0.34 0.34 0.34 0.35 0.34 0.35 0.34 0.34 0.37 0.39 0.39 0.39 0.40 0.42 0.44 0.46 0.48 0.48 0.56 0.60 0.59 0.53 0.43 0.21 0.41 0.41 0.75 0.58 0.58 0.53 0.44 0.40 0.46 0.44 0.36 0.35 0.48 0.57 0.59 0.53 0.47 0.46 0.49 0.51 0.62 0.70 0.85 0.96 1.13 0.86 1.03 1.09 1.15 1.17 1.06 1.15 1.16 1.22 1.22 1.20 1.19 1.15 1.20 1.31 1.30 1.23 1.30 1.26 1.19 1.23 1.43 1.46 1.45 1.41 1.38 1.33 1.34 1.31 1.26 1.28
0.37 0.36 0.35 0.34 0.33 0.33 0.33 0.33 0.33 0.33 0.33 0.34 0.33 0.33 0.34 0.36 0.39 0.40 0.40 0.39 0.40 0.43 0.44 0.48 0.48 0.48 0.53 0.59 0.53 0.42 0.32 0.38 0.49 0.52 0.67 0.65 0.57 0.55 0.50 0.45 0.53 0.39 0.34 0.29 0.38 0.45 0.52 0.51 0.47 0.44 0.46 0.48 0.61 0.72 0.87 0.96 1.03 0.96 0.90 1.04 1.04 1.12 1.07 1.14 1.15 1.22 1.21 1.20 1.17 1.23 1.29 1.18 1.21 1.10 1.28 1.21 1.31 1.43 1.49 1.54 1.50 1.50 1.47 1.40 1.30 1.28 1.23 1.24
0.36 0.36 0.35 0.33 0.33 0.32 0.32 0.32 0.32 0.32 0.33 0.31 0.30 0.31 0.33 0.37 0.39 0.40 0.41 0.41 0.42 0.44 0.47 0.47 0.49 0.47 0.54 0.49 0.36 0.28 0.30 0.30 0.48 0.58 0.57 0.61 0.58 0.55 0.54 0.44 0.45 0.36 0.30 0.25 0.27 0.34 0.43 0.46 0.45 0.49 0.44 0.43 0.53 0.64 0.84 0.89 0.94 0.86 0.89 1.00 1.04 1.10 1.08 1.11 1.13 1.16 1.21 1.20 1.25 1.26 1.19 1.14 1.17 1.17 1.23 1.16 1.30 1.41 1.48 1.57 1.56 1.51 1.42 1.34 1.29 1.28 1.31 1.30
0.36 0.36 0.35 0.34 0.32 0.32 0.31 0.32 0.31 0.31 0.30 0.30 0.30 0.31 0.35 0.37 0.39 0.40 0.41 0.42 0.44 0.46 0.48 0.50 0.46 0.52 0.57 0.46 0.32 0.24 0.20 0.40 0.58 0.60 0.60 0.59 0.62 0.60 0.50 0.36 0.45 0.31 0.27 0.28 0.26 0.26 0.31 0.38 0.45 0.49 0.44 0.45 0.54 0.54 0.73 0.78 0.75 0.85 0.92 1.02 1.04 1.04 1.08 1.09 1.08 1.11 1.16 1.20 1.25 1.20 1.15 1.20 1.20 1.27 1.16 1.23 1.31 1.42 1.49 1.51 1.54 1.51 1.38 1.29 1.28 1.29 1.29 1.30
0.37 0.36 0.35 0.34 0.32 0.32 0.31 0.31 0.31 0.30 0.30 0.29 0.29 0.32 0.36 0.38 0.40 0.40 0.40 0.41 0.41 0.44 0.47 0.49 0.53 0.53 0.44 0.36 0.36 0.19 0.38 0.52 0.68 0.71 0.70 0.69 0.65 0.55 0.45 0.35 0.38 0.31 0.27 0.28 0.28 0.25 0.24 0.29 0.38 0.52 0.54 0.51 0.57 0.53 0.67 0.73 0.72 0.89 0.96 1.01 1.01 1.03 1.04 1.06 1.02 1.07 1.16 1.19 1.23 1.13 1.10 1.11 1.21 1.19 1.03 1.28 1.36 1.44 1.45 1.45 1.49 1.46 1.33 1.27 1.28 1.31 1.31 1.30
0.37 0.36 0.35 0.34 0.33 0.31 0.31 0.31 0.31 0.30 0.30 0.28 0.29 0.32 0.35 0.38 0.40 0.38 0.37 0.38 0.40 0.43 0.46 0.48 0.54 0.53 0.33 0.36 0.22 0.17 0.35 0.51 0.60 0.64 0.69 0.66 0.64 0.50 0.39 0.39 0.36 0.29 0.27 0.29 0.26 0.25 0.22 0.25 0.36 0.45 0.50 0.46 0.53 0.55 0.66 0.70 0.84 0.89 0.95 0.99 0.96 0.98 1.01 1.02 1.01 1.05 1.16 1.11 1.22 1.15 1.08 1.12 1.17 1.15 1.05 1.21 1.35 1.42 1.38 1.40 1.43 1.42 1.33 1.26 1.27 1.29 1.32 1.33
0.39 0.37 0.36 0.35 0.33 0.31 0.31 0.32 0.31 0.29 0.29 0.28 0.30 0.32 0.35 0.37 0.38 0.37 0.36 0.39 0.49 0.50 0.50 0.54 0.57 0.53 0.40 0.29 0.22 0.17 0.30 0.51 0.60 0.60 0.57 0.63 0.59 0.56 0.49 0.41 0.36 0.29 0.29 0.25 0.27 0.27 0.25 0.24 0.33 0.38 0.35 0.53 0.43 0.57 0.61 0.77 0.79 0.83 0.91 0.81 0.85 0.92 0.88 0.93 0.88 0.96 1.09 1.09 1.19 1.19 1.07 1.00 1.05 0.99 1.12 1.26 1.36 1.37 1.34 1.36 1.39 1.38 1.35 1.29 1.28 1.31 1.32 1.31
0.40 0.38 0.36 0.35 0.34 0.32 0.31 0.32 0.31 0.28 0.28 0.29 0.30 0.33 0.33 0.34 0.35 0.35 0.36 0.47 0.51 0.46 0.49 0.50 0.53 0.55 0.38 0.17 0.19 0.23 0.34 0.49 0.52 0.53 0.51 0.50 0.60 0.69 0.63 0.52 0.38 0.33 0.29 0.25 0.25 0.27 0.27 0.26 0.30 0.31 0.42 0.49 0.48 0.48 0.64 0.69 0.72 0.80 0.84 0.80 0.76 0.76 0.73 0.83 0.89 0.92 0.97 1.10 1.20 1.15 0.78 0.86 0.97 1.07 1.19 1.29 1.29 1.32 1.31 1.32 1.36 1.37 1.36 1.34 1.30 1.27 1.30 1.35
0.40 0.39 0.37 0.35 0.35 0.34 0.31 0.31 0.30 0.28 0.28 0.29 0.32 0.34 0.31 0.32 0.33 0.34 0.36 0.52 0.51 0.51 0.53 0.55 0.54 0.47 0.36 0.19 0.18 0.26 0.35 0.39 0.45 0.49 0.47 0.51 0.50 0.54 0.62 0.58 0.47 0.40 0.35 0.27 0.28 0.31 0.28 0.27 0.27 0.32 0.43 0.45 0.46 0.61 0.62 0.61 0.64 0.57 0.70 0.75 0.64 0.62 0.58 0.76 0.79 0.86 0.86 1.07 1.13 1.12 0.77 0.84 0.95 1.05 1.21 1.30 1.31 1.26 1.23 1.29 1.33 1.35 1.34 1.32 1.31 1.29 1.26 1.29
0.40 0.39 0.37 0.35 0.35 0.34 0.32 0.31 0.30 0.29 0.28 0.30 0.34 0.33 0.31 0.30 0.32 0.35 0.38 0.56 0.57 0.58 0.57 0.58 0.55 0.40 0.24 0.21 0.34 0.33 0.43 0.56 0.47 0.47 0.56 0.47 0.48 0.48 0.51 0.60 0.49 0.42 0.38 0.35 0.32 0.33 0.32 0.27 0.26 0.27 0.30 0.45 0.53 0.53 0.53 0.56 0.57 0.57 0.52 0.49 0.58 0.55 0.57 0.69 0.76 0.79 0.74 0.96 1.10 1.05 0.79 0.81 0.91 1.00 1.17 1.28 1.29 1.25 1.19 1.24 1.28 1.31 1.31 1.29 1.27 1.27 1.27 1.25
0.40 0.39 0.38 0.35 0.34 0.34 0.32 0.30 0.30 0.30 0.30 0.33 0.34 0.32 0.31 0.31 0.34 0.37 0.42 0.54 0.59 0.57 0.56 0.42 0.45 0.42 0.27 0.16 0.25 0.50 0.38 0.30 0.40 0.56 0.62 0.60 0.50 0.47 0.52 0.55 0.54 0.44 0.40 0.36 0.37 0.34 0.32 0.26 0.20 0.24 0.29 0.39 0.44 0.45 0.46 0.48 0.50 0.52 0.46 0.44 0.47 0.51 0.54 0.59 0.68 0.73 0.80 0.85 0.98 0.97 0.78 0.83 0.87 1.03 1.17 1.26 1.24 1.22 1.18 1.20 1.23 1.26 1.27 1.27 1.25 1.24 1.25 1.26
0.41 0.40 0.39 0.36 0.35 0.34 0.32 0.31 0.30 0.31 0.33 0.35 0.34 0.32 0.31 0.32 0.37 0.42 0.52 0.61 0.58 0.55 0.44 0.35 0.48 0.52 0.14 0.45 0.54 0.34 0.30 0.43 0.46 0.44 0.48 0.57 0.56 0.56 0.57 0.53 0.49 0.45 0.41 0.40 0.37 0.35 0.31 0.23 0.21 0.25 0.33 0.35 0.40 0.45 0.38 0.38 0.40 0.43 0.45 0.40 0.46 0.46 0.50 0.49 0.62 0.67 0.73 0.78 0.77 0.91 0.82 0.82 0.91 1.06 1.15 1.21 1.20 1.18 1.16 1.16 1.19 1.23 1.24 1.24 1.24 1.23 1.24 1.21
0.41 0.40 0.39 0.38 0.36 0.34 0.32 0.31 0.31 0.32 0.35 0.35 0.34 0.31 0.28 0.28 0.39 0.46 0.59 0.60 0.50 0.46 0.51 0.63 0.57 0.37 0.20 0.37 0.23 0.34 0.44 0.36 0.33 0.32 0.38 0.46 0.57 0.61 0.59 0.52 0.49 0.44 0.41 0.39 0.41 0.31 0.32 0.22 0.21 0.16 0.25 0.33 0.37 0.37 0.32 0.26 0.32 0.35 0.37 0.37 0.41 0.47 0.49 0.48 0.49 0.58 0.67 0.74 0.73 0.79 0.78 0.80 0.91 1.04 1.11 1.16 1.22 1.17 1.13 1.14 1.16 1.20 1.21 1.21 1.22 1.21 1.22 1.20
0.41 0.40 0.40 0.39 0.37 0.33 0.32 0.32 0.32 0.34 0.35 0.37 0.33 0.30 0.28 0.29 0.34 0.45 0.41 0.35 0.21 0.20 0.17 0.31 0.31 0.11 0.09 0.22 0.29 0.29 0.34 0.34 0.32 0.30 0.32 0.43 0.54 0.62 0.62 0.59 0.49 0.41 0.33 0.32 0.31 0.31 0.30 0.24 0.22 0.19 0.20 0.27 0.30 0.31 0.29 0.32 0.40 0.40 0.41 0.40 0.41 0.40 0.43 0.44 0.51 0.62 0.67 0.67 0.68 0.74 0.72 0.77 0.84 0.94 1.05 1.14 1.21 1.16 1.12 1.16 1.18 1.20 1.19 1.19 1.19 1.19 1.20 1.19
0.40 0.40 0.41 0.40 0.37 0.33 0.32 0.33 0.34 0.34 0.36 0.33 0.27 0.22 0.19 0.14 0.13 0.11 0.26 0.18 0.16 0.21 0.22 0.23 0.30 0.26 0.23 0.20 0.21 0.27 0.30 0.30 0.27 0.33 0.37 0.42 0.52 0.56 0.55 0.54 0.45 0.42 0.33 0.25 0.29 0.28 0.29 0.17 0.15 0.14 0.16 0.22 0.28 0.33 0.35 0.39 0.42 0.43 0.44 0.42 0.40 0.42 0.44 0.49 0.53 0.60 0.69 0.67 0.67 0.71 0.76 0.80 0.83 0.87 0.95 1.05 1.15 1.14 1.13 1.12 1.14 1.17 1.17 1.16 1.17 1.16 1.18 1.19
0.43 0.43 0.42 0.40 0.37 0.33 0.32 0.33 0.34 0.34 0.36 0.34 0.26 0.16 0.13 0.14 0.10 0.08 0.12 0.13 0.19 0.26 0.25 0.26 0.25 0.23 0.19 0.21 0.21 0.22 0.19 0.21 0.26 0.33 0.38 0.39 0.46 0.52 0.47 0.49 0.42 0.33 0.31 0.30 0.28 0.32 0.29 0.17 0.15 0.15 0.17 0.23 0.29 0.37 0.39 0.39 0.41 0.40 0.39 0.39 0.39 0.42 0.39 0.47 0.50 0.60 0.65 0.61 0.62 0.72 0.74 0.77 0.80 0.87 0.92 1.04 1.07 1.04 1.06 1.08 1.10 1.13 1.15 1.15 1.14 1.13 1.16 1.19
0.43 0.44 0.44 0.42 0.38 0.34 0.33 0.35 0.33 0.33 0.34 0.34 0.23 0.17 0.19 0.21 0.26 0.27 0.19 0.09 0.13 0.28 0.30 0.30 0.30 0.26 0.27 0.24 0.23 0.22 0.21 0.20 0.23 0.34 0.41 0.40 0.41 0.41 0.44 0.44 0.39 0.31 0.34 0.34 0.33 0.28 0.22 0.16 0.14 0.17 0.24 0.28 0.32 0.37 0.39 0.37 0.35 0.38 0.37 0.37 0.36 0.37 0.42 0.51 0.53 0.60 0.61 0.58 0.55 0.67 0.67 0.72 0.76 0.83 0.92 0.97 0.98 1.01 1.06 1.06 1.06 1.10 1.13 1.14 1.15 1.13 1.16 1.19
0.43 0.45 0.46 0.45 0.40 0.36 0.34 0.36 0.32 0.32 0.29 0.25 0.21 0.20 0.20 0.27 0.33 0.31 0.23 0.15 0.12 0.27 0.32 0.32 0.29 0.26 0.25 0.26 0.25 0.24 0.15 0.15 0.20 0.32 0.37 0.43 0.40 0.42 0.44 0.40 0.39 0.37 0.36 0.34 0.27 0.24 0.20 0.19 0.19 0.24 0.28 0.29 0.31 0.34 0.35 0.35 0.35 0.34 0.35 0.34 0.30 0.35 0.37 0.36 0.47 0.57 0.60 0.55 0.52 0.60 0.60 0.67 0.77 0.84 0.88 0.94 0.96 0.99 1.07 1.10 1.10 1.12 1.10 1.09 1.11 1.12 1.12 1.13
0.43 0.45 0.47 0.46 0.42 0.37 0.36 0.36 0.34 0.28 0.25 0.27 0.24 0.21 0.28 0.33 0.34 0.28 0.18 0.11 0.10 0.24 0.32 0.34 0.33 0.29 0.25 0.22 0.27 0.23 0.17 0.17 0.21 0.29 0.41 0.40 0.37 0.44 0.42 0.40 0.38 0.39 0.33 0.33 0.31 0.27 0.21 0.25 0.29 0.30 0.30 0.30 0.27 0.29 0.30 0.30 0.27 0.31 0.32 0.32 0.31 0.34 0.36 0.37 0.42 0.50 0.55 0.54 0.55 0.53 0.53 0.58 0.68 0.73 0.80 0.89 0.99 1.00 1.05 1.10 1.14 1.17 1.15 1.13 1.17 1.20 1.19 1.13
0.43 0.45 0.48 0.49 0.45 0.42 0.38 0.38 0.26 0.26 0.30 0.26 0.22 0.27 0.31 0.35 0.35 0.29 0.16 0.13 0.15 0.24 0.35 0.33 0.36 0.32 0.29 0.35 0.32 0.24 0.22 0.19 0.21 0.30 0.37 0.38 0.38 0.40 0.38 0.43 0.40 0.35 0.36 0.37 0.34 0.31 0.29 0.32 0.36 0.28 0.28 0.30 0.29 0.27 0.28 0.28 0.25 0.26 0.30 0.31 0.30 0.35 0.36 0.39 0.45 0.45 0.43 0.43 0.49 0.48 0.39 0.41 0.57 0.66 0.67 0.76 0.89 0.93 1.02 1.03 1.04 1.08 1.12 1.19 1.18 1.17 1.21 1.23
0.45 0.47 0.51 0.51 0.49 0.46 0.43 0.29 0.27 0.32 0.29 0.21 0.23 0.31 0.32 0.35 0.37 0.30 0.17 0.10 0.06 0.19 0.30 0.21 0.35 0.25 0.34 0.26 0.28 0.27 0.24 0.15 0.24 0.30 0.35 0.38 0.42 0.40 0.41 0.37 0.38 0.31 0.37 0.38 0.35 0.33 0.30 0.35 0.36 0.31 0.27 0.27 0.27 0.25 0.26 0.28 0.23 0.22 0.21 0.30 0.31 0.34 0.36 0.39 0.41 0.42 0.37 0.34 0.45 0.51 0.36 0.33 0.53 0.55 0.61 0.69 0.76 0.80 0.93 0.96 0.98 1.02 1.08 1.11 1.11 1.14 1.15 1.18
0.48 0.49 0.52 0.52 0.49 0.50 0.33 0.25 0.35 0.35 0.22 0.23 0.31 0.34 0.36 0.36 0.39 0.27 0.14 0.09 0.06 0.20 0.16 0.22 0.24 0.29 0.33 0.29 0.27 0.29 0.13 0.13 0.24 0.31 0.35 0.41 0.36 0.45 0.34 0.33 0.36 0.37 0.40 0.42 0.37 0.30 0.35 0.33 0.34 0.34 0.32 0.27 0.25 0.23 0.26 0.26 0.23 0.19 0.22 0.28 0.32 0.34 0.34 0.36 0.41 0.41 0.39 0.44 0.46 0.45 0.42 0.34 0.38 0.50 0.59 0.65 0.69 0.74 0.82 0.87 0.93 0.99 1.04 1.05 1.07 1.11 1.12 1.16
0.49 0.50 0.52 0.53 0.49 0.51 0.39 0.39 0.36 0.29 0.28 0.33 0.38 0.38 0.38 0.38 0.33 0.26 0.15 0.05 0.04 0.20 0.16 0.19 0.22 0.32 0.30 0.31 0.30 0.24 0.23 0.26 0.16 0.26 0.37 0.42 0.39 0.35 0.35 0.33 0.33 0.32 0.37 0.38 0.25 0.30 0.37 0.32 0.32 0.30 0.30 0.29 0.23 0.23 0.26 0.28 0.21 0.18 0.24 0.27 0.29 0.33 0.34 0.36 0.38 0.40 0.43 0.42 0.34 0.39 0.41 0.31 0.31 0.43 0.60 0.66 0.63 0.68 0.73 0.79 0.84 0.92 0.97 1.00 1.04 1.08 1.10 1.14
0.51 0.53 0.54 0.56 0.51 0.53 0.54 0.43 0.39 0.32 0.38 0.42 0.42 0.41 0.40 0.37 0.26 0.17 0.11 0.05 0.22 0.16 0.29 0.17 0.28 0.24 0.25 0.31 0.28 0.28 0.26 0.26 0.18 0.26 0.37 0.41 0.42 0.37 0.32 0.35 0.37 0.37 0.38 0.36 0.29 0.35 0.38 0.39 0.38 0.36 0.31 0.26 0.29 0.30 0.32 0.31 0.23 0.24 0.26 0.26 0.27 0.32 0.34 0.37 0.36 0.38 0.42 0.40 0.31 0.36 0.38 0.29 0.27 0.36 0.48 0.65 0.62 0.60 0.67 0.75 0.81 0.85 0.88 0.93 0.99 1.05 1.09 1.14
0.54 0.55 0.57 0.57 0.52 0.51 0.49 0.51 0.42 0.44 0.47 0.47 0.45 0.43 0.38 0.27 0.22 0.12 0.08 0.05 0.19 0.11 0.18 0.19 0.17 0.15 0.20 0.23 0.27 0.29 0.25 0.25 0.26 0.26 0.33 0.37 0.40 0.40 0.36 0.44 0.39 0.36 0.33 0.37 0.37 0.39 0.45 0.51 0.51 0.45 0.35 0.32 0.35 0.37 0.37 0.34 0.31 0.33 0.29 0.25 0.22 0.23 0.28 0.34 0.36 0.37 0.39 0.33 0.32 0.37 0.38 0.33 0.24 0.31 0.38 0.50 0.54 0.58 0.63 0.72 0.79 0.83 0.88 0.93 0.97 1.00 1.05 1.09
0.56 0.57 0.57 0.56 0.47 0.50 0.50 0.39 0.42 0.51 0.50 0.48 0.46 0.38 0.29 0.22 0.14 0.10 0.06 0.11 0.19 0.18 0.20 0.17 0.15 0.19 0.16 0.16 0.20 0.29 0.27 0.26 0.25 0.25 0.25 0.34 0.37 0.41 0.37 0.36 0.42 0.34 0.32 0.32 0.34 0.39 0.45 0.51 0.51 0.50 0.53 0.47 0.39 0.38 0.42 0.41 0.36 0.34 0.30 0.25 0.24 0.21 0.23 0.26 0.29 0.35 0.30 0.27 0.34 0.38 0.38 0.36 0.24 0.25 0.38 0.48 0.58 0.65 0.62 0.63 0.71 0.76 0.80 0.85 0.92 0.99 1.04 1.07
0.57 0.58 0.58 0.53 0.56 0.62 0.46 0.42 0.49 0.53 0.48 0.46 0.40 0.28 0.20 0.11 0.15 0.08 0.08 0.23 0.11 0.16 0.15 0.14 0.17 0.16 0.16 0.18 0.18 0.24 0.27 0.28 0.28 0.25 0.24 0.30 0.35 0.37 0.40 0.35 0.37 0.27 0.24 0.25 0.25 0.35 0.37 0.43 0.51 0.53 0.58 0.52 0.44 0.35 0.38 0.41 0.39 0.35 0.32 0.29 0.20 0.17 0.17 0.13 0.21 0.22 0.24 0.24 0.33 0.39 0.38 0.32 0.28 0.29 0.34 0.46 0.52 0.62 0.69 0.67 0.68 0.71 0.74 0.79 0.85 0.92 0.97 1.02
0.58 0.59 0.58 0.59 0.62 0.57 0.57 0.58 0.56 0.52 0.48 0.42 0.30 0.24 0.15 0.09 0.06 0.14 0.13 0.15 0.12 0.17 0.15 0.19 0.17 0.16 0.16 0.16 0.16 0.22 0.28 0.26 0.30 0.27 0.27 0.33 0.35 0.39 0.44 0.38 0.37 0.31 0.21 0.24 0.24 0.26 0.30 0.39 0.45 0.49 0.52 0.56 0.50 0.35 0.31 0.33 0.36 0.33 0.29 0.26 0.21 0.15 0.14 0.10 0.13 0.20 0.23 0.28 0.37 0.37 0.38 0.28 0.29 0.31 0.35 0.39 0.47 0.57 0.67 0.74 0.75 0.72 0.73 0.75 0.81 0.87 0.94 1.00
0.58 0.61 0.58 0.62 0.63 0.61 0.59 0.59 0.53 0.49 0.41 0.34 0.26 0.18 0.14 0.08 0.09 0.19 0.14 0.15 0.15 0.19 0.18 0.16 0.17 0.18 0.16 0.14 0.17 0.22 0.22 0.29 0.30 0.28 0.27 0.28 0.35 0.33 0.38 0.40 0.40 0.35 0.31 0.27 0.22 0.23 0.20 0.23 0.32 0.39 0.38 0.50 0.49 0.44 0.36 0.31 0.33 0.32 0.32 0.28 0.21 0.18 0.14 0.10 0.11 0.12 0.17 0.22 0.29 0.37 0.30 0.24 0.24 0.24 0.33 0.37 0.44 0.50 0.57 0.65 0.75 0.79 0.76 0.76 0.81 0.86 0.90 0.95
0.61 0.63 0.65 0.64 0.63 0.61 0.58 0.55 0.51 0.49 0.40 0.31 0.23 0.16 0.09 0.10 0.15 0.13 0.14 0.16 0.17 0.18 0.17 0.19 0.16 0.16 0.15 0.14 0.18 0.21 0.25 0.25 0.32 0.30 0.27 0.27 0.30 0.33 0.35 0.38 0.41 0.39 0.34 0.24 0.28 0.27 0.22 0.21 0.26 0.38 0.41 0.47 0.44 0.48 0.47 0.38 0.33 0.34 0.34 0.33 0.25 0.18 0.21 0.14 0.14 0.15 0.17 0.19 0.22 0.27 0.26 0.28 0.27 0.31 0.35 0.37 0.39 0.44 0.50 0.57 0.67 0.76 0.82 0.84 0.89 0.91 0.92 0.94
0.58 0.60 0.65 0.59 0.57 0.57 0.58 0.55 0.50 0.48 0.37 0.29 0.20 0.14 0.13 0.16 0.14 0.17 0.17 0.20 0.19 0.17 0.18 0.18 0.17 0.14 0.15 0.14 0.17 0.17 0.28 0.25 0.30 0.30 0.28 0.29 0.35 0.33 0.40 0.41 0.40 0.40 0.34 0.28 0.32 0.24 0.26 0.20 0.29 0.35 0.40 0.41 0.43 0.48 0.47 0.45 0.25 0.29 0.34 0.27 0.23 0.27 0.25 0.20 0.20 0.21 0.18 0.18 0.16 0.24 0.25 0.27 0.30 0.30 0.31 0.33 0.34 0.37 0.43 0.48 0.57 0.66 0.75 0.80 0.83 0.88 0.92 0.93
0.53 0.60 0.55 0.58 0.56 0.60 0.59 0.57 0.51 0.44 0.36 0.28 0.19 0.14 0.19 0.22 0.20 0.20 0.21 0.19 0.20 0.21 0.18 0.13 0.15 0.15 0.14 0.14 0.14 0.17 0.21 0.27 0.29 0.30 0.25 0.31 0.30 0.39 0.38 0.42 0.47 0.42 0.40 0.36 0.31 0.40 0.27 0.23 0.33 0.32 0.31 0.38 0.45 0.48 0.50 0.48 0.43 0.35 0.27 0.27 0.34 0.34 0.29 0.23 0.16 0.17 0.14 0.10 0.10 0.19 0.20 0.23 0.23 0.21 0.28 0.29 0.30 0.33 0.38 0.41 0.48 0.57 0.65 0.71 0.76 0.82 0.87 0.91
0.54 0.58 0.61 0.57 0.59 0.62 0.60 0.58 0.50 0.41 0.32 0.26 0.19 0.21 0.26 0.21 0.24 0.22 0.24 0.23 0.23 0.23 0.19 0.17 0.17 0.20 0.16 0.16 0.15 0.17 0.21 0.22 0.26 0.30 0.27 0.31 0.28 0.44 0.41 0.40 0.47 0.45 0.42 0.41 0.36 0.35 0.37 0.22 0.27 0.32 0.32 0.36 0.42 0.46 0.44 0.48 0.49 0.38 0.29 0.35 0.29 0.23 0.21 0.24 0.23 0.15 0.12 0.11 0.11 0.13 0.19 0.22 0.22 0.21 0.24 0.26 0.27 0.29 0.35 0.39 0.43 0.48 0.55 0.60 0.65 0.73 0.81 0.87
0.57 0.58 0.48 0.57 0.65 0.65 0.61 0.57 0.49 0.36 0.29 0.22 0.21 0.20 0.25 0.23 0.27 0.26 0.27 0.26 0.25 0.23 0.20 0.22 0.19 0.21 0.20 0.17 0.19 0.19 0.21 0.18 0.26 0.27 0.26 0.30 0.28 0.41 0.41 0.44 0.41 0.46 0.43 0.40 0.37 0.37 0.43 0.28 0.24 0.32 0.32 0.38 0.39 0.39 0.33 0.35 0.41 0.42 0.41 0.34 0.36 0.30 0.21 0.19 0.20 0.20 0.18 0.13 0.11 0.11 0.14 0.16 0.22 0.20 0.22 0.24 0.28 0.29 0.32 0.38 0.41 0.44 0.50 0.54 0.60 0.65 0.73 0.81
0.53 0.50 0.47 0.63 0.66 0.65 0.61 0.53 0.42 0.36 0.28 0.20 0.22 0.23 0.27 0.25 0.28 0.31 0.32 0.29 0.26 0.24 0.24 0.23 0.25 0.21 0.22 0.21 0.21 0.17 0.20 0.20 0.22 0.26 0.28 0.33 0.32 0.42 0.41 0.46 0.42 0.43 0.44 0.41 0.37 0.41 0.37 0.42 0.22 0.29 0.36 0.36 0.30 0.35 0.31 0.33 0.30 0.31 0.32 0.30 0.31 0.28 0.30 0.26 0.23 0.20 0.17 0.14 0.13 0.11 0.10 0.12 0.19 0.24 0.22 0.22 0.25 0.30 0.31 0.34 0.40 0.44 0.47 0.51 0.56 0.61 0.68 0.75
0.60 0.51 0.51 0.66 0.67 0.67 0.60 0.46 0.37 0.31 0.26 0.27 0.27 0.26 0.28 0.29 0.32 0.33 0.34 0.33 0.31 0.33 0.29 0.28 0.26 0.22 0.23 0.21 0.19 0.22 0.18 0.20 0.21 0.23 0.30 0.31 0.33 0.29 0.44 0.43 0.44 0.41 0.44 0.40 0.38 0.39 0.36 0.36 0.26 0.28 0.28 0.28 0.32 0.36 0.35 0.34 0.36 0.32 0.29 0.27 0.28 0.26 0.24 0.21 0.18 0.24 0.21 0.18 0.15 0.13 0.10 0.12 0.16 0.24 0.23 0.23 0.24 0.26 0.29 0.32 0.36 0.39 0.43 0.47 0.53 0.59 0.66 0.71
0.51 0.41 0.49 0.67 0.69 0.64 0.50 0.37 0.36 0.35 0.29 0.25 0.25 0.30 0.29 0.37 0.33 0.34 0.35 0.36 0.34 0.32 0.37 0.32 0.31 0.26 0.25 0.23 0.22 0.22 0.20 0.20 0.22 0.21 0.30 0.30 0.36 0.35 0.40 0.47 0.46 0.45 0.41 0.36 0.38 0.41 0.43 0.40 0.34 0.25 0.27 0.28 0.33 0.37 0.42 0.43 0.42 0.40 0.36 0.30 0.31 0.30 0.29 0.24 0.17 0.18 0.21 0.21 0.22 0.20 0.14 0.11 0.16 0.17 0.20 0.22 0.22 0.23 0.26 0.30 0.31 0.35 0.38 0.44 0.50 0.55 0.61 0.67
0.52 0.48 0.64 0.69 0.69 0.60 0.45 0.36 0.38 0.32 0.28 0.32 0.37 0.35 0.37 0.36 0.34 0.37 0.34 0.36 0.34 0.36 0.34 0.32 0.28 0.25 0.28 0.25 0.24 0.22 0.23 0.22 0.24 0.22 0.23 0.30 0.34 0.38 0.43 0.45 0.48 0.44 0.43 0.40 0.42 0.45 0.49 0.37 0.29 0.27 0.30 0.31 0.34 0.39 0.41 0.42 0.42 0.38 0.37 0.35 0.32 0.29 0.29 0.25 0.22 0.22 0.19 0.19 0.18 0.17 0.14 0.10 0.16 0.20 0.19 0.19 0.20 0.20 0.21 0.25 0.28 0.32 0.36 0.41 0.45 0.52 0.59 0.64
0.57 0.56 0.59 0.68 0.68 0.59 0.42 0.31 0.28 0.29 0.31 0.35 0.35 0.35 0.39 0.37 0.35 0.34 0.35 0.37 0.35 0.34 0.32 0.31 0.30 0.30 0.27 0.29 0.26 0.22 0.26 0.18 0.30 0.24 0.21 0.30 0.29 0.42 0.43 0.44 0.46 0.42 0.43 0.41 0.42 0.52 0.38 0.37 0.32 0.25 0.23 0.24 0.27 0.33 0.35 0.41 0.44 0.40 0.38 0.36 0.33 0.32 0.31 0.30 0.30 0.29 0.21 0.20 0.19 0.16 0.11 0.08 0.13 0.23 0.27 0.28 0.28 0.27 0.26 0.25 0.23 0.26 0.33 0.37 0.42 0.49 0.56 0.62
0.61 0.66 0.63 0.61 0.65 0.56 0.40 0.43 0.35 0.30 0.31 0.32 0.34 0.33 0.35 0.36 0.40 0.39 0.37 0.36 0.40 0.37 0.34 0.32 0.32 0.31 0.30 0.30 0.26 0.26 0.27 0.24 0.20 0.28 0.25 0.27 0.28 0.39 0.42 0.43 0.46 0.42 0.48 0.55 0.58 0.56 0.41 0.36 0.32 0.24 0.20 0.17 0.17 0.21 0.25 0.32 0.37 0.40 0.41 0.38 0.37 0.31 0.30 0.29 0.26 0.26 0.21 0.21 0.21 0.18 0.13 0.11 0.14 0.20 0.24 0.27 0.29 0.29 0.31 0.31 0.30 0.30 0.28 0.32 0.40 0.48 0.57 0.62
0.52 0.44 0.54 0.56 0.57 0.53 0.51 0.52 0.44 0.36 0.32 0.32 0.31 0.34 0.36 0.32 0.38 0.42 0.41 0.38 0.41 0.39 0.35 0.34 0.35 0.34 0.30 0.28 0.24 0.23 0.22 0.27 0.21 0.23 0.25 0.22 0.29 0.34 0.40 0.44 0.44 0.45 0.52 0.55 0.55 0.50 0.41 0.39 0.37 0.33 0.29 0.24 0.27 0.32 0.40 0.42 0.40 0.34 0.35 0.37 0.35 0.36 0.33 0.31 0.29 0.25 0.21 0.22 0.20 0.18 0.16 0.14 0.14 0.16 0.21 0.26 0.29 0.28 0.28 0.28 0.29 0.29 0.30 0.32 0.34 0.43 0.53 0.58
0.60 0.48 0.49 0.45 0.51 0.50 0.45 0.46 0.41 0.40 0.34 0.39 0.31 0.35 0.31 0.33 0.35 0.36 0.43 0.35 0.41 0.39 0.37 0.36 0.35 0.30 0.30 0.28 0.25 0.23 0.24 0.21 0.24 0.22 0.22 0.24 0.29 0.33 0.40 0.42 0.45 0.49 0.54 0.50 0.53 0.48 0.41 0.36 0.37 0.37 0.35 0.34 0.35 0.36 0.40 0.41 0.37 0.37 0.37 0.35 0.38 0.36 0.36 0.30 0.26 0.22 0.25 0.23 0.18 0.20 0.20 0.17 0.18 0.21 0.23 0.25 0.28 0.29 0.28 0.29 0.32 0.34 0.37 0.37 0.38 0.41 0.46 0.52
0.49 0.54 0.59 0.60 0.47 0.41 0.41 0.39 0.42 0.39 0.40 0.41 0.36 0.40 0.34 0.33 0.34 0.31 0.40 0.42 0.43 0.44 0.34 0.36 0.36 0.35 0.33 0.30 0.28 0.22 0.22 0.21 0.20 0.19 0.25 0.27 0.27 0.33 0.34 0.40 0.42 0.51 0.50 0.48 0.52 0.46 0.41 0.36 0.39 0.38 0.36 0.37 0.37 0.37 0.41 0.41 0.41 0.41 0.41 0.40 0.38 0.39 0.37 0.31 0.26 0.27 0.27 0.23 0.18 0.21 0.22 0.19 0.22 0.24 0.25 0.27 0.27 0.26 0.27 0.31 0.34 0.36 0.37 0.40 0.42 0.42 0.43 0.46
0.63 0.61 0.61 0.66 0.49 0.51 0.48 0.46 0.44 0.42 0.38 0.40 0.39 0.38 0.34 0.34 0.33 0.38 0.38 0.37 0.39 0.39 0.40 0.30 0.33 0.35 0.35 0.35 0.30 0.24 0.23 0.18 0.17 0.22 0.23 0.24 0.26 0.29 0.30 0.35 0.43 0.50 0.48 0.47 0.48 0.50 0.44 0.39 0.41 0.41 0.36 0.35 0.35 0.37 0.41 0.41 0.43 0.44 0.44 0.45 0.44 0.42 0.39 0.36 0.30 0.29 0.28 0.26 0.25 0.25 0.25 0.21 0.24 0.26 0.27 0.28 0.29 0.30 0.33 0.37 0.39 0.39 0.37 0.37 0.39 0.40 0.41 0.45
0.58 0.57 0.55 0.64 0.59 0.54 0.52 0.49 0.44 0.41 0.36 0.41 0.35 0.36 0.37 0.36 0.34 0.38 0.41 0.39 0.34 0.36 0.43 0.35 0.34 0.35 0.35 0.33 0.31 0.25 0.25 0.25 0.24 0.20 0.26 0.27 0.26 0.30 0.31 0.34 0.35 0.46 0.47 0.44 0.47 0.50 0.45 0.39 0.45 0.41 0.35 0.33 0.37 0.39 0.41 0.42 0.44 0.45 0.52 0.53 0.50 0.45 0.40 0.38 0.34 0.30 0.30 0.29 0.29 0.27 0.25 0.22 0.25 0.30 0.29 0.33 0.35 0.38 0.42 0.37 0.36 0.36 0.37 0.37 0.39 0.41 0.43 0.45
0.73 0.76 0.71 0.58 0.50 0.53 0.53 0.50 0.43 0.40 0.37 0.40 0.35 0.38 0.38 0.38 0.37 0.41 0.39 0.44 0.39 0.36 0.39 0.35 0.37 0.36 0.36 0.33 0.31 0.29 0.31 0.31 0.30 0.29 0.30 0.30 0.24 0.33 0.32 0.35 0.40 0.37 0.42 0.43 0.47 0.48 0.48 0.42 0.45 0.41 0.34 0.32 0.37 0.38 0.39 0.44 0.48 0.50 0.50 0.50 0.47 0.43 0.34 0.34 0.32 0.38 0.30 0.28 0.29 0.28 0.24 0.21 0.27 0.32 0.35 0.37 0.39 0.42 0.43 0.40 0.38 0.37 0.38 0.39 0.40 0.43 0.46 0.48
0.82 0.83 0.79 0.66 0.50 0.56 0.50 0.51 0.46 0.41 0.35 0.40 0.40 0.39 0.38 0.40 0.43 0.44 0.36 0.44 0.45 0.45 0.43 0.41 0.39 0.36 0.33 0.31 0.30 0.32 0.36 0.36 0.35 0.35 0.35 0.35 0.35 0.35 0.38 0.38 0.41 0.38 0.40 0.43 0.50 0.47 0.47 0.44 0.40 0.39 0.33 0.33 0.38 0.39 0.39 0.46 0.48 0.43 0.45 0.52 0.55 0.53 0.49 0.46 0.47 0.46 0.44 0.41 0.29 0.25 0.23 0.27 0.36 0.38 0.34 0.38 0.44 0.52 0.51 0.47 0.43 0.42 0.42 0.42 0.41 0.43 0.45 0.48
Wind_Speed
18 18 19 19 19 19 19 19 19 19 19 19 19 19 18 18 18 17 17 16 16 15 15 14 14 14 14 13 12 12 12 12 12 11 13 15 17 18 16 15 17 19 18 17 20 20 19 19 18 17 17 16 14 13 14 13 11 10 8 8 7 6 6 5 5 5 4 3 5 7 8 7 6 6 6 6 4 5 7 5 7 6 5 9 10 13 17 17
19 19 20 20 20 20 20 20 20 20 20 20 20 19 19 19 19 18 18 17 16 16 15 15 15 14 14 13 13 12 12 12 12 13 16 16 16 18 19 18 17 19 19 19 20 20 20 20 19 18 17 16 14 14 14 13 13 11 9 8 8 7 6 6 5 5 4 4 6 7 8 7 7 7 7 6 4 6 7 6 8 7 8 10 12 15 17 18
20 20 20 21 21 21 21 21 21 21 21 20 20 20 20 20 19 19 19 18 17 16 16 16 15 15 14 14 13 12 12 12 12 14 15 16 17 19 20 20 19 20 21 20 21 20 20 20 20 18 17 16 15 15 14 13 13 12 11 9 10 9 7 6 6 7 6 5 7 7 8 8 7 8 7 6 6 7 7 7 8 9 11 12 13 16 17 18
20 21 21 21 22 22 22 22 22 22 22 21 21 21 21 20 20 20 20 19 18 17 17 16 16 15 15 14 13 12 12 12 12 12 12 12 15 18 20 22 20 21 21 20 20 20 19 19 20 18 17 15 15 16 15 14 13 12 12 11 10 9 8 8 8 8 6 6 7 7 7 7 7 8 7 7 7 5 6 8 9 10 13 14 14 16 17 17
21 21 22 22 22 22 23 23 23 22 22 22 22 22 22 21 21 21 20 20 19 18 18 17 16 15 15 14 13 12 12 11 10 10 10 10 12 15 19 22 21 21 21 21 20 20 19 19 19 18 17 15 15 15 15 16 14 11 13 13 11 9 8 9 9 9 8 8 8 7 7 7 8 7 8 9 7 5 7 9 10 11 13 14 15 16 17 17
22 22 22 23 23 23 23 23 23 23 23 23 23 23 22 22 21 21 21 21 20 19 18 18 17 16 15 14 13 13 12 11 10 10 10 9 10 13 18 22 22 21 22 22 21 21 20 20 20 19 17 15 16 16 14 16 15 12 13 14 13 11 10 9 8 10 10 9 8 8 8 8 8 7 9 10 7 6 7 9 10 11 12 13 15 16 16 16
23 23 23 23 23 24 24 24 24 23 23 23 23 23 23 22 22 21 22 21 21 20 19 18 17 16 15 14 14 14 14 15 14 12 12 11 10 12 17 21 22 22 22 23 22 22 21 21 21 19 17 16 16 16 15 15 16 14 13 13 13 12 12 11 9 10 12 12 11 10 9 9 9 7 8 10 8 7 7 9 10 11 12 13 14 15 16 16
23 24 24 24 24 24 24 24 24 24 24 24 23 23 23 23 22 22 22 22 21 20 19 18 17 17 16 15 14 14 15 17 16 14 14 13 12 12 16 21 22 23 23 23 23 23 22 22 22 20 18 17 16 16 16 15 15 15 15 14 13 12 13 12 11 12 13 13 12 11 10 10 10 9 8 9 8 8 9 10 11 12 13 13 14 15 16 16
24 24 25 25 25 25 25 25 24 24 24 24 23 23 23 23 23 23 22 22 21 20 20 19 18 17 16 15 15 15 17 16 14 14 14 14 13 13 17 20 22 23 23 23 23 24 23 22 23 21 18 19 17 16 17 16 15 15 16 15 13 13 12 12 12 14 15 13 12 11 10 11 11 9 7 8 9 10 11 11 11 13 13 13 14 15 15 15
25 25 25 25 25 25 25 25 25 25 24 24 24 23 23 23 23 23 22 22 22 21 20 19 18 17 17 16 15 16 17 15 13 12 13 13 14 14 17 21 22 23 22 22 23 24 24 23 24 22 18 18 18 17 17 17 15 14 16 15 14 14 14 13 13 15 15 14 14 12 10 11 12 10 7 8 11 11 12 12 12 13 13 13 13 14 15 15
26 26 26 26 26 26 26 25 25 25 25 24 24 24 23 23 23 22 22 22 22 21 20 20 19 18 18 17 17 18 17 15 14 13 12 13 15 16 18 22 22 23 22 22 23 24 24 24 24 23 19 18 19 18 19 19 17 15 16 15 16 15 14 14 13 14 15 13 15 13 9 10 11 10 8 10 12 13 13 13 13 13 13 13 13 14 14 15
26 26 26 26 26 26 26 26 26 26 26 25 25 25 24 24 23 23 23 22 21 19 19 19 19 19 18 18 20 20 18 17 16 15 15 15 16 17 18 22 23 23 22 21 22 24 24 24 25 24 21 19 18 18 18 20 20 19 17 16 17 15 14 15 14 15 15 13 14 13 10 10 11 11 10 13 13 13 14 14 13 13 13 12 13 13 13 14
27 28 27 27 27 27 27 27 27 27 26 26 26 26 25 25 24 24 23 21 19 18 18 19 19 20 19 19 22 22 20 20 19 19 18 17 18 18 18 22 24 23 23 22 22 24 24 24 25 26 23 20 19 18 17 18 20 20 18 17 17 15 15 16 14 16 16 14 15 14 12 12 12 11 12 15 15 14 14 14 13 13 12 12 12 12 13 14
29 29 29 28 28 28 28 28 28 27 27 26 26 26 26 26 25 25 23 20 19 19 19 19 20 20 20 21 22 22 22 22 21 21 20 19 19 19 19 21 24 24 23 23 22 23 24 24 24 25 24 22 20 19 17 17 18 18 17 17 17 16 16 15 14 15 16 16 18 16 14 13 13 13 15 15 16 16 14 14 14 13 12 12 12 12 13 14
30 30 30 30 29 29 29 29 28 28 27 27 26 27 27 26 25 24 22 19 20 20 20 21 20 20 21 23 24 23 22 21 21 21 21 21 21 20 20 21 24 25 24 23 22 23 24 24 23 24 24 23 21 20 18 18 18 18 17 16 16 16 16 15 14 16 16 15 18 18 14 13 13 13 16 17 17 17 15 15 15 14 14 13 12 12 13 14
30 30 31 30 30 30 30 29 29 28 28 27 27 27 27 26 25 23 20 19 20 21 22 21 21 21 21 22 22 22 21 20 21 21 20 21 22 22 21 21 23 25 25 24 23 23 24 23 23 24 23 23 22 21 20 19 19 19 18 17 16 16 16 15 14 17 17 16 18 19 14 12 12 14 17 17 18 18 16 15 16 15 15 14 12 12 13 13
31 31 32 31 31 31 30 30 29 28 28 27 27 27 27 25 23 20 19 19 21 23 23 21 21 22 22 22 21 21 21 22 22 21 21 21 24 23 22 22 22 25 25 24 24 23 24 23 22 23 24 24 23 22 21 22 21 20 18 18 17 17 17 16 14 16 18 17 18 20 17 13 12 14 17 18 19 18 16 16 16 16 15 15 13 12 13 14
33 33 33 32 32 32 31 31 30 28 28 28 28 27 26 25 22 20 18 20 23 23 22 21 20 20 21 21 22 22 23 24 24 24 24 23 25 25 24 23 23 25 25 24 24 24 24 23 22 23 24 25 25 24 24 23 22 21 19 18 18 18 18 18 16 15 17 17 18 20 19 16 14 15 17 19 19 18 17 17 17 17 16 16 15 13 13 14
33 34 33 33 33 33 32 31 30 29 28 28 28 27 25 23 22 20 19 22 23 21 20 21 21 20 21 22 25 26 27 27 27 26 25 23 26 27 25 24 24 25 24 23 24 25 24 23 24 25 26 28 28 27 26 23 21 21 21 20 19 19 19 19 18 15 16 17 18 20 20 18 17 17 17 18 19 18 17 17 17 17 17 16 15 14 13 13
35 35 34 34 34 33 32 31 30 29 28 26 26 25 23 23 21 20 21 22 22 21 22 23 23 24 26 26 27 27 28 28 27 27 25 24 25 27 27 25 24 25 25 23 24 25 26 25 27 28 27 28 28 27 26 24 23 21 21 21 21 21 20 19 18 16 16 16 18 20 20 19 18 18 19 19 19 18 17 17 18 18 17 17 16 15 14 14
36 35 35 35 34 33 32 31 29 29 28 26 25 23 22 22 21 21 22 22 22 22 23 24 23 24 25 26 26 26 26 26 27 27 27 26 26 27 28 27 26 25 25 24 23 25 27 28 29 28 26 26 26 26 26 26 26 23 21 21 21 22 21 20 19 17 16 17 18 19 19 20 20 19 20 20 20 19 18 18 18 19 19 18 18 17 15 14
36 36 36 35 34 33 32 30 29 29 27 24 23 21 21 22 21 22 21 21 23 23 22 22 21 21 22 23 25 26 26 26 26 28 27 27 28 29 29 29 28 26 25 25 25 26 28 30 29 26 24 25 25 26 26 27 27 26 23 21 21 21 20 20 21 19 18 17 17 17 18 20 20 20 20 21 22 21 20 20 19 20 20 19 19 18 16 14
37 36 36 35 34 33 31 29 28 28 26 24 23 21 22 22 22 22 21 21 23 23 21 19 19 19 19 20 21 23 26 26 26 28 27 27 29 30 30 30 29 27 27 28 28 28 28 27 26 25 25 26 26 26 26 26 26 27 25 24 23 21 20 21 21 19 19 19 17 17 17 19 20 20 20 23 24 22 22 22 20 20 21 21 21 19 17 16
37 37 36 35 33 32 30 28 27 26 25 24 23 22 23 23 22 21 21 21 21 21 20 19 19 18 19 19 19 21 25 26 27 27 27 28 29 30 31 30 30 29 29 30 30 30 28 24 23 27 27 27 28 27 27 26 26 27 28 26 24 23 23 22 19 19 19 19 18 17 16 18 20 21 21 23 24 23 22 22 21 22 23 22 21 20 18 18
37 37 36 35 32 31 29 26 24 25 25 23 23 23 24 23 22 21 21 20 20 21 20 20 19 18 19 19 18 21 23 25 27 28 28 30 30 30 30 31 31 31 31 31 31 31 30 24 23 27 29 29 29 28 28 27 26 27 29 28 26 24 24 22 19 19 19 20 20 18 17 17 20 23 23 22 23 23 23 22 23 23 23 22 21 21 20 19
37 36 35 34 31 29 26 23 23 24 23 22 22 24 24 23 23 21 20 19 19 20 19 19 19 19 19 18 18 20 21 23 26 27 28 30 32 31 31 31 31 32 31 31 30 30 29 27 24 25 28 30 30 29 29 28 26 27 28 28 27 26 25 23 21 20 20 21 21 19 18 18 19 23 24 23 24 25 24 23 24 24 23 23 23 22 21 20
37 36 35 33 30 28 24 22 23 23 21 22 23 23 23 23 22 20 19 18 19 18 18 19 19 19 19 19 19 18 20 22 24 25 26 29 33 33 33 32 31 32 31 30 32 31 30 30 28 26 26 29 30 30 28 28 27 26 25 26 27 27 27 25 22 22 21 21 21 21 19 18 19 21 23 24 26 27 26 24 23 24 24 24 24 24 23 22
37 36 35 33 30 26 23 22 23 22 21 23 24 23 23 22 20 18 16 17 19 18 18 19 19 20 20 20 18 16 19 20 21 25 27 29 33 34 33 33 32 32 31 33 34 31 29 31 32 29 27 28 29 29 27 27 27 24 22 25 27 27 28 26 23 23 22 21 24 24 21 19 19 20 22 24 27 28 28 26 24 24 25 25 25 26 25 24
37 36 34 31 28 24 21 21 21 21 22 23 23 23 22 19 17 16 15 17 18 17 18 19 19 20 21 21 18 17 18 18 19 24 25 26 31 33 33 33 32 31 32 35 34 30 29 31 32 31 30 28 26 26 26 28 27 22 21 23 26 27 28 26 25 24 23 23 26 27 23 19 19 20 22 25 28 28 27 25 23 24 25 25 25 26 26 24
36 34 32 28 24 22 21 21 21 21 23 23 22 21 18 14 13 14 15 17 17 18 19 20 20 21 22 21 20 18 18 18 19 21 22 23 26 30 32 31 31 31 32 34 35 31 29 29 30 31 31 28 25 24 26 29 26 22 21 22 22 25 27 26 25 25 25 26 28 30 26 21 20 21 22 24 26 26 25 25 24 23 24 25 25 26 26 25
35 34 31 26 23 22 22 22 23 23 23 22 21 19 14 12 12 11 14 16 17 19 19 19 20 21 20 20 20 20 20 19 18 18 20 22 23 26 28 29 30 31 31 33 34 33 31 29 29 29 30 29 27 26 26 27 27 24 23 22 22 22 24 25 25 25 27 27 27 29 27 24 23 23 22 23 24 26 26 25 24 24 24 24 25 26 26 26
35 33 29 25 23 23 23 23 24 24 22 21 19 16 12 12 12 11 14 16 16 17 18 18 20 20 20 19 20 21 21 20 18 17 18 21 23 24 25 26 29 31 33 34 33 32 33 33 30 28 29 30 29 28 27 26 28 27 25 25 24 22 22 25 25 25 27 26 26 27 25 25 26 25 25 25 24 24 25 26 26 25 24 24 24 25 26 26
35 32 27 24 22 22 23 23 23 22 21 20 18 14 11 11 12 13 15 15 15 17 18 18 20 20 20 20 19 20 21 20 18 18 18 20 23 24 25 24 25 28 31 32 32 32 32 33 33 32 30 30 31 30 30 28 28 29 29 27 26 23 23 26 26 24 24 24 26 26 24 24 24 24 26 26 25 24 25 27 28 28 27 26 24 24 25 26
35 30 25 24 22 22 23 23 22 20 19 19 16 13 11 12 14 15 16 16 17 18 19 19 19 19 19 19 18 18 20 20 19 19 20 20 21 23 24 24 22 24 28 30 31 33 34 34 36 36 32 31 32 32 31 29 28 29 29 28 28 27 25 24 24 24 23 22 24 25 24 24 23 22 23 24 25 26 26 27 28 30 29 27 26 24 24 26
34 28 24 24 22 22 23 23 21 19 17 16 14 12 12 13 15 16 17 19 19 20 20 19 18 18 18 19 19 18 19 20 20 21 21 20 21 21 22 23 22 22 25 27 28 30 35 35 33 35 35 32 33 32 30 29 28 29 28 29 30 29 26 23 22 23 22 21 23 25 25 24 22 21 21 21 23 25 26 26 27 29 29 28 27 27 26 25
32 26 24 22 21 22 23 22 20 17 15 14 13 12 13 14 16 17 19 20 20 21 21 20 18 17 17 19 19 18 18 20 20 21 21 21 21 21 22 23 22 21 21 25 27 26 30 34 30 30 34 35 34 31 30 31 29 27 29 32 30 27 25 24 22 21 21 22 24 26 25 23 21 21 21 20 21 23 25 25 25 27 29 29 29 28 28 27
31 27 23 21 22 22 22 21 19 15 13 12 12 13 14 15 16 18 20 20 21 21 19 18 18 17 17 18 18 17 18 20 19 20 21 22 22 22 22 23 22 21 21 23 27 26 27 31 32 31 33 34 34 32 31 32 30 27 29 30 25 22 25 25 22 20 21 23 24 24 26 25 22 21 21 22 22 23 24 24 24 26 27 28 29 29 29 29
31 26 21 21 23 23 21 20 17 14 12 12 13 14 15 15 17 19 20 20 20 20 18 17 17 16 16 16 17 17 17 18 18 20 22 22 22 21 22 24 23 22 22 24 27 27 27 29 32 34 33 31 31 33 31 31 32 30 28 27 25 24 26 27 24 22 22 21 21 22 25 26 24 22 22 24 24 23 24 24 24 25 25 25 27 28 29 29
29 25 20 22 25 24 22 18 15 13 12 13 14 15 16 16 18 19 20 20 20 18 16 15 15 15 15 15 16 17 17 17 18 20 22 23 23 22 20 23 24 23 23 24 26 26 27 28 30 31 32 30 30 33 34 33 32 32 29 27 27 27 26 27 26 23 21 20 20 21 22 25 26 24 23 25 25 24 24 24 24 24 25 24 25 27 28 28
28 23 20 23 26 24 20 16 13 13 13 13 14 15 16 17 18 19 20 20 18 16 14 14 14 14 15 15 16 17 17 17 17 19 22 23 24 23 21 21 24 23 24 26 26 26 27 28 29 30 30 31 32 33 34 34 32 32 32 31 30 28 26 26 26 25 22 20 19 19 21 24 26 24 23 25 25 25 24 24 25 25 25 25 25 26 28 28
27 22 21 24 25 22 18 14 13 14 13 13 14 15 17 18 18 20 21 20 16 13 11 11 12 12 14 15 15 16 16 17 17 18 21 22 23 24 22 21 23 24 25 26 26 26 27 27 28 30 30 32 35 33 30 30 30 32 32 33 32 30 27 26 26 26 25 22 19 18 20 23 24 23 24 25 25 26 26 25 25 26 27 26 26 27 28 28
26 23 23 25 24 21 15 12 13 14 12 14 16 17 18 19 18 19 20 18 13 11 10 10 11 11 13 13 14 15 15 15 16 17 19 21 23 25 24 22 23 24 25 26 26 27 28 28 28 31 32 34 37 36 31 30 31 31 32 32 32 31 29 28 26 26 27 25 22 18 18 21 21 22 24 26 26 27 28 28 27 27 28 28 28 28 28 29
25 24 24 24 23 18 13 12 14 13 13 16 18 18 19 19 19 19 18 16 12 11 10 9 10 10 11 12 12 13 14 14 15 16 17 20 22 24 25 24 23 24 25 26 26 27 27 27 27 29 31 33 35 35 33 31 30 30 30 31 32 33 32 30 27 25 25 25 24 20 19 19 18 18 20 21 22 23 24 27 30 30 29 30 30 30 30 30
25 24 23 23 22 17 12 13 14 13 15 17 18 18 19 19 18 18 16 13 11 10 9 9 9 9 10 11 11 12 13 13 15 16 17 19 21 23 25 25 25 25 26 26 26 26 26 27 26 26 26 29 31 32 31 29 27 27 29 30 32 35 34 29 26 24 24 26 26 22 20 20 18 15 15 16 17 18 19 22 27 29 29 30 31 30 30 31
25 22 21 22 21 17 13 14 14 14 16 17 17 18 19 18 18 17 14 11 9 9 9 9 9 9 9 10 11 12 12 13 15 16 17 18 20 23 24 25 26 27 28 28 27 27 28 28 27 27 27 29 29 30 29 27 26 28 29 29 30 33 34 32 27 26 26 25 26 25 23 21 19 17 17 17 16 17 17 19 22 25 27 30 31 31 31 31
24 22 21 21 19 16 15 15 15 15 16 17 17 17 17 17 16 15 12 9 9 9 9 8 7 8 9 10 11 12 13 13 15 16 17 18 19 22 24 25 27 29 29 28 27 27 29 29 29 30 31 31 30 29 29 27 28 30 30 30 30 31 33 33 30 29 28 25 25 27 25 22 22 22 20 19 17 17 17 17 20 23 24 26 29 30 31 31
22 22 22 20 17 16 15 16 16 16 16 17 16 15 16 16 14 13 10 8 8 9 8 8 7 8 9 10 11 13 13 14 15 16 18 19 19 22 24 25 27 28 28 27 27 28 29 29 29 31 32 32 31 32 31 30 30 31 31 31 32 31 31 34 35 33 28 25 25 26 23 23 25 24 22 20 18 17 16 17 20 22 23 24 26 27 29 30
21 21 21 19 16 15 15 16 18 17 17 17 15 14 16 16 14 11 8 7 7 8 8 8 8 8 10 11 11 13 14 14 16 16 17 18 19 20 23 24 25 26 26 27 28 29 30 30 30 30 30 31 32 32 32 31 31 31 31 32 33 31 31 33 36 34 30 28 27 24 22 24 25 23 21 18 17 17 17 17 20 20 21 23 24 25 27 28
21 20 20 18 16 15 16 17 18 17 17 17 15 14 15 15 13 10 8 7 8 8 7 9 10 11 12 12 12 13 14 15 16 16 16 18 19 19 21 23 24 24 26 28 29 29 30 30 29 28 29 30 32 32 31 31 30 30 29 30 31 32 33 34 33 33 33 31 27 23 23 24 24 21 19 17 16 17 16 17 20 19 19 21 23 24 26 27
21 20 19 18 16 15 16 17 17 17 16 16 15 14 15 15 13 10 9 8 9 8 8 9 11 12 13 13 12 14 15 15 16 17 16 18 19 19 21 24 24 24 27 29 29 29 30 29 28 27 26 28 30 30 29 28 28 28 26 26 27 30 33 34 32 31 32 30 26 24 24 24 21 19 18 16 15 15 16 18 21 21 21 21 21 22 24 26
21 20 19 18 16 15 15 16 16 16 16 16 15 15 15 15 13 11 9 8 8 9 9 11 12 13 13 12 13 14 15 16 17 18 18 20 21 20 21 24 24 24 26 28 30 30 30 30 28 25 25 27 27 27 26 26 26 26 23 21 24 27 29 30 29 28 30 29 26 25 24 23 20 19 18 16 14 14 15 18 20 21 21 20 20 20 22 24
21 20 19 17 16 15 15 16 16 15 15 15 16 16 16 15 13 10 9 7 7 9 10 11 12 12 11 12 13 14 16 17 18 19 19 21 23 23 23 25 27 25 25 27 30 30 30 30 27 25 26 27 26 25 26 25 23 24 21 19 21 24 25 26 25 25 27 29 28 27 25 23 21 20 19 17 15 15 15 16 19 20 20 19 20 20 21 23
Wind_Direction
320 319 318 318 316 315 314 313 311 310 309 308 307 307 306 305 304 303 301 299 297 295 292 290 288 287 286 284 282 278 276 271 267 256 243 239 230 223 216 211 208 202 202 200 196 196 199 203 205 202 202 204 207 206 203 207 210 205 203 203 198 189 190 194 187 178 174 166 164 174 178 172 165 167 159 150 143 145 147 136 143 146 142 150 151 156 159 160
320 319 319 317 316 315 314 313 311 310 308 307 306 304 304 303 302 300 299 297 296 293 291 288 285 284 282 281 278 275 274 269 267 258 245 240 232 224 216 212 208 201 199 198 196 196 199 204 204 201 202 207 210 207 204 207 210 209 205 203 201 194 191 200 199 187 187 175 168 175 178 174 166 162 159 154 155 155 149 138 137 133 135 143 150 158 160 161
321 320 319 318 316 315 314 313 311 309 308 307 305 303 302 301 299 298 297 296 294 292 289 287 284 281 279 277 275 272 270 270 266 257 251 244 236 228 218 213 209 202 200 200 197 196 198 200 200 200 201 207 210 207 206 208 209 211 210 207 206 202 202 216 209 193 194 177 166 175 176 174 172 164 162 156 155 163 161 149 141 138 144 147 154 161 163 164
322 321 320 318 316 315 314 313 311 309 308 306 305 303 302 299 297 295 294 293 291 290 288 285 282 279 276 273 271 268 266 269 262 252 251 242 232 226 217 213 209 204 203 203 199 196 197 196 195 198 201 206 208 207 209 210 208 209 209 207 205 197 202 219 215 201 199 185 176 172 171 182 183 168 166 158 151 168 177 170 157 148 152 154 157 164 166 167
322 321 319 317 316 315 314 312 311 309 307 306 304 303 301 299 296 294 292 291 289 288 286 283 280 277 273 269 266 263 261 263 258 245 243 239 233 225 214 210 207 204 203 203 201 198 196 196 195 197 201 205 204 207 212 211 210 211 209 210 212 202 201 211 211 206 198 188 183 173 177 189 186 177 178 171 162 176 179 174 163 151 155 159 161 165 168 170
321 320 318 317 316 314 313 312 310 309 307 306 304 302 300 298 296 294 291 289 287 285 283 280 277 274 270 265 261 258 253 254 253 241 238 239 235 224 212 207 204 204 203 202 203 201 199 197 197 198 202 204 204 207 211 209 210 214 211 214 218 215 213 212 207 205 193 186 187 186 191 186 184 193 193 188 185 184 175 166 162 157 159 161 163 166 169 173
321 319 318 316 315 313 312 311 310 308 307 305 304 301 299 297 296 293 291 289 286 283 280 278 274 270 266 262 257 256 252 251 253 245 244 245 236 225 211 205 203 203 204 203 204 204 202 199 200 202 203 205 209 211 211 209 210 214 216 218 220 219 219 218 213 207 197 195 197 192 191 188 191 199 198 200 196 183 170 163 163 160 161 162 166 170 172 174
320 319 317 316 314 313 312 310 309 308 306 305 302 300 298 297 295 293 290 288 285 282 278 274 271 266 262 258 256 256 253 251 254 249 246 244 237 226 209 204 204 204 205 205 205 206 205 203 203 204 205 208 211 211 210 212 213 216 219 220 221 222 222 222 218 209 203 204 203 194 192 198 200 198 201 200 190 176 167 163 162 160 162 166 170 173 175 176
320 318 317 316 314 313 312 311 309 308 306 304 302 300 298 297 295 292 289 287 284 280 276 272 267 263 258 256 254 256 253 249 254 248 240 237 234 224 208 204 205 205 207 208 207 207 207 207 207 205 208 212 213 211 207 210 216 215 218 222 223 225 225 225 219 208 206 207 204 199 202 210 205 201 206 194 177 169 164 164 164 163 166 170 172 175 176 178
319 318 317 316 314 313 312 311 310 308 306 304 302 301 298 297 294 291 288 286 283 278 273 268 264 260 257 253 249 252 250 243 246 242 235 235 230 222 211 206 206 206 208 210 210 210 209 209 208 208 212 213 213 213 207 209 216 217 219 225 226 229 230 228 222 210 207 210 206 201 205 211 204 202 206 188 173 166 164 167 169 169 171 173 174 176 178 180
320 318 317 316 314 313 312 311 310 308 306 304 302 300 298 297 294 291 289 286 282 276 270 265 261 258 256 252 246 248 246 239 240 239 239 237 228 222 214 208 206 206 208 210 212 212 212 211 207 209 215 214 212 213 213 215 222 224 224 228 227 229 230 228 224 212 206 211 207 200 206 211 206 208 203 182 172 168 167 170 173 174 174 175 177 178 180 183
320 319 317 316 314 313 311 310 309 307 305 303 301 299 298 296 294 292 290 286 280 274 269 264 260 258 257 253 247 246 244 240 242 244 245 241 231 226 218 211 208 208 208 210 214 214 213 211 207 209 213 213 211 210 214 219 223 225 225 228 229 229 230 225 222 214 208 210 202 197 210 216 212 214 196 180 176 172 172 174 176 176 175 176 179 180 182 185
321 319 317 315 313 312 311 309 308 306 304 302 299 298 297 296 294 292 290 284 278 274 270 266 262 258 256 252 249 247 246 247 249 248 244 240 233 227 222 215 212 212 212 211 213 213 213 212 209 210 213 215 214 213 218 221 221 223 222 225 228 232 231 220 216 215 213 210 199 198 217 221 218 212 188 181 180 175 175 178 178 179 178 178 180 181 184 187
322 320 318 316 314 312 310 308 307 305 303 300 298 297 297 296 293 292 288 279 275 274 271 269 264 256 252 252 252 251 250 251 249 245 240 235 230 226 223 219 215 215 216 215 214 212 212 212 211 213 217 219 219 221 225 221 219 220 220 223 226 231 229 217 211 211 215 213 200 203 222 223 220 208 189 186 184 179 180 182 181 184 183 182 183 184 186 189
323 321 319 317 315 313 311 308 306 304 301 299 298 296 295 295 293 291 284 275 274 273 272 271 263 256 254 254 253 251 248 246 242 241 238 232 227 224 222 221 219 216 216 217 216 214 212 212 213 215 218 219 220 222 222 218 217 217 218 223 224 226 227 221 215 208 212 215 203 206 220 221 220 206 192 191 189 185 186 187 186 187 187 187 187 187 189 191
323 321 319 317 315 313 312 310 307 305 302 299 297 295 294 294 292 288 279 274 273 271 272 270 262 256 254 253 251 247 242 239 239 238 237 230 226 225 221 220 221 218 217 218 217 215 212 212 215 216 217 218 217 217 219 222 220 216 217 221 220 221 225 224 220 211 210 214 209 210 217 218 217 204 194 193 191 189 191 193 192 191 191 191 191 190 191 192
323 321 319 316 314 313 312 310 308 305 303 300 298 295 293 292 289 285 278 274 275 273 271 266 259 257 254 250 248 246 241 239 240 240 239 233 226 225 222 221 222 218 217 218 218 216 213 213 215 216 216 217 216 214 220 225 221 218 217 220 219 218 222 224 224 217 211 213 215 215 218 218 212 201 196 194 192 192 194 198 197 195 193 193 194 192 192 193
323 321 319 316 314 313 311 310 307 305 303 301 298 295 292 290 286 281 276 277 279 275 269 263 259 258 254 248 247 247 246 245 246 244 241 235 226 223 223 223 221 216 215 219 219 217 215 214 214 216 216 216 216 215 220 222 219 218 217 218 220 219 222 223 224 221 212 214 217 217 220 220 212 204 202 200 196 196 199 202 201 198 196 195 196 194 192 194
322 321 319 317 315 312 310 309 306 304 303 301 299 296 291 291 286 277 276 281 280 272 266 262 257 256 255 255 253 250 251 250 247 242 236 230 224 222 223 223 219 213 214 218 218 215 215 215 214 216 218 217 217 217 220 221 218 217 217 218 220 220 222 222 223 223 214 216 219 218 221 220 214 209 208 205 202 203 203 203 202 201 199 198 198 198 195 196
322 320 319 317 315 312 310 308 305 303 303 300 300 296 292 293 285 276 281 282 274 266 265 265 259 257 258 258 256 253 252 248 241 236 232 229 223 220 221 220 216 214 215 217 217 215 215 217 217 218 218 217 217 218 219 222 222 220 219 220 221 222 224 222 222 223 216 216 220 219 220 220 216 212 210 207 206 209 207 204 203 202 202 200 200 201 199 200
322 320 319 318 315 312 310 307 304 303 302 298 299 296 291 293 285 279 284 279 273 267 264 265 261 258 257 256 254 251 249 243 238 235 231 228 223 219 220 218 217 218 218 216 217 216 216 220 221 220 218 216 217 217 217 220 222 223 221 221 223 222 224 223 221 222 220 221 223 220 220 221 218 216 213 208 208 212 209 205 204 202 203 204 203 204 202 202
323 321 319 318 315 312 310 307 304 303 301 297 298 296 290 291 286 282 281 275 276 272 264 265 261 259 258 254 252 247 240 239 239 235 229 225 222 219 219 218 220 221 218 215 216 216 219 223 223 220 217 215 216 216 217 219 221 223 222 221 223 221 222 226 224 222 221 223 224 220 221 224 221 218 214 209 211 214 209 207 205 202 203 206 205 205 203 203
324 322 320 318 316 313 310 307 304 303 301 297 296 293 290 291 289 285 279 272 274 272 266 265 260 262 262 255 253 245 234 233 235 234 229 225 222 220 219 219 221 221 217 217 217 217 220 225 222 217 216 216 218 217 217 220 222 223 222 222 223 219 218 223 223 222 221 222 225 223 225 229 224 220 216 212 213 215 213 212 211 207 205 206 206 204 203 204
325 324 322 319 317 314 310 306 304 304 303 297 293 291 291 291 289 286 279 270 268 265 263 263 260 266 268 260 254 244 236 232 229 230 229 225 223 220 220 220 220 221 220 218 219 220 223 225 218 214 216 216 218 219 217 220 223 223 223 222 222 219 218 220 222 225 225 225 225 224 230 233 225 220 218 215 215 217 216 215 216 214 210 209 209 207 206 207
326 325 323 321 318 314 310 306 305 306 303 297 293 293 293 291 290 285 277 271 266 260 258 261 260 264 269 264 255 244 238 232 227 228 229 226 224 222 221 221 220 223 222 218 221 224 225 224 216 214 217 216 218 221 219 219 223 225 223 221 219 219 219 220 222 226 229 229 224 220 228 235 226 220 219 217 216 217 217 216 216 215 213 212 212 209 208 210
327 326 324 322 319 316 312 306 307 308 304 298 296 296 294 293 291 283 274 271 266 259 259 262 259 262 270 268 259 245 235 234 231 229 228 226 224 223 221 221 221 223 221 220 223 225 223 220 217 217 217 217 219 222 220 218 222 227 223 217 217 220 221 220 221 224 226 227 224 219 225 234 230 223 221 218 216 218 217 216 216 215 214 213 213 211 210 211
328 327 325 323 320 317 312 307 309 310 305 301 300 299 295 294 290 279 273 270 266 261 261 264 261 262 267 267 262 246 236 241 236 228 230 228 225 223 222 221 221 222 220 220 225 224 220 217 218 219 217 217 219 221 220 216 220 226 220 215 216 219 222 221 221 226 227 228 230 226 226 233 233 227 223 217 216 218 217 215 216 216 215 214 213 212 211 211
328 327 326 323 320 316 311 309 312 310 307 306 305 302 298 293 284 274 271 267 264 263 261 264 264 264 265 262 257 247 243 244 234 232 239 232 223 221 223 222 222 222 219 220 225 223 218 218 219 218 220 221 220 220 217 215 220 223 216 215 217 217 221 221 222 228 229 231 235 232 227 233 236 232 226 218 215 217 216 214 215 215 214 214 213 213 212 212
329 328 327 325 322 318 314 313 314 312 312 312 309 305 300 292 279 273 271 263 263 266 264 266 267 267 267 257 249 249 247 241 234 239 241 230 221 221 222 222 222 224 222 223 226 223 220 220 218 219 222 222 222 221 217 216 219 218 213 216 218 218 221 221 223 227 228 230 233 232 227 230 238 234 225 218 216 217 216 214 213 213 213 214 214 214 213 212
330 329 328 327 325 321 318 316 315 314 315 315 311 308 303 291 283 278 271 264 266 270 268 269 269 268 268 256 246 249 246 240 242 244 238 231 226 223 222 222 221 224 225 225 225 223 222 221 218 220 222 220 219 220 218 217 217 214 213 216 219 220 220 222 224 224 227 230 231 231 228 227 236 235 224 220 219 218 216 214 215 215 216 217 216 215 215 213
332 331 329 327 325 322 320 317 315 315 315 314 312 309 303 294 291 282 274 273 273 273 271 271 270 269 269 259 248 247 244 240 243 240 233 231 228 222 222 223 222 224 225 224 224 223 222 221 219 220 220 218 217 219 219 218 215 213 213 213 217 219 217 221 222 220 225 230 229 229 228 227 233 233 227 225 223 220 217 215 213 214 216 217 217 216 216 215
333 331 328 326 325 325 322 317 316 316 314 314 313 309 300 295 294 286 285 287 280 277 277 276 273 269 267 260 252 249 244 240 239 233 228 226 221 217 216 219 221 223 223 222 222 221 221 221 221 220 218 215 215 217 217 217 213 212 211 210 212 213 212 216 217 218 226 230 227 225 225 229 233 234 229 226 225 222 220 217 213 212 214 216 217 216 215 215
333 331 329 328 327 325 323 318 317 316 314 314 312 308 302 297 294 293 295 294 286 284 283 279 275 270 264 257 253 250 243 237 235 231 229 224 218 215 214 218 222 223 223 220 220 220 220 221 220 219 218 215 214 214 214 214 212 210 209 209 210 209 211 216 217 221 227 230 226 222 225 233 235 234 228 223 224 223 221 220 216 214 215 217 218 216 215 214
333 331 329 328 326 324 323 320 318 316 314 314 311 308 308 301 296 300 300 293 289 289 286 281 277 271 262 254 251 248 240 235 235 234 232 226 220 219 218 220 223 225 223 220 220 219 219 220 217 217 216 213 213 215 213 212 212 212 211 210 213 213 213 216 217 221 225 228 226 220 225 230 229 231 227 221 222 222 221 221 219 218 218 218 219 217 214 213
332 330 329 329 327 325 325 323 319 317 315 314 311 309 309 303 299 302 300 294 292 291 287 284 278 268 260 254 249 246 239 236 236 235 232 226 220 221 221 219 221 223 222 220 223 222 222 221 217 217 216 212 213 215 211 210 213 215 211 210 216 215 214 217 220 221 222 227 226 220 225 232 231 235 232 222 221 221 220 221 219 219 219 218 220 219 215 214
333 331 329 330 329 327 327 324 319 317 315 314 313 311 308 302 300 300 299 296 293 289 286 283 277 266 260 255 249 246 242 238 237 233 228 224 219 219 220 219 218 219 221 222 223 223 224 222 218 219 218 214 213 213 210 211 212 212 210 213 216 213 213 219 223 224 221 224 226 222 227 235 235 235 231 220 219 220 220 220 218 217 216 215 218 218 216 216
335 331 327 330 330 327 324 322 318 315 314 313 311 310 307 303 302 301 300 298 293 288 285 280 273 263 258 254 248 248 244 238 235 230 225 223 220 218 219 219 217 217 223 225 220 220 227 226 221 219 217 216 214 212 212 213 211 210 212 213 212 211 215 218 221 224 222 225 230 225 226 229 228 229 228 220 217 219 220 219 217 216 214 214 216 216 216 216
334 331 327 330 331 327 322 319 315 311 311 313 311 311 310 307 308 307 304 300 294 291 286 275 266 258 253 250 247 247 243 235 233 229 224 222 220 218 219 220 219 220 227 227 220 221 227 226 221 215 214 215 213 211 213 214 212 213 214 212 208 210 214 214 216 221 221 226 232 229 228 228 225 225 223 219 218 218 219 218 217 217 215 214 214 214 214 214
336 334 331 331 331 328 322 316 312 310 310 312 312 312 312 309 310 312 309 303 296 292 285 271 262 256 250 245 244 244 239 233 233 230 223 221 222 221 220 222 221 222 229 228 222 223 223 220 218 214 214 216 212 209 211 211 212 212 212 212 212 214 215 213 216 219 220 226 230 231 232 230 228 225 220 220 221 218 217 218 218 219 218 214 213 213 213 211
338 335 332 332 332 328 322 317 316 316 311 309 309 312 313 309 309 314 315 308 298 290 280 268 261 255 248 243 240 241 237 232 232 230 225 223 224 223 221 222 224 227 230 226 222 223 222 219 218 216 216 215 211 209 210 209 210 211 211 212 212 213 214 215 218 218 218 224 225 228 234 233 230 227 221 222 224 220 218 218 220 221 219 215 213 214 214 212
337 335 331 333 334 329 323 321 320 315 308 308 310 312 313 312 311 312 315 312 301 288 278 266 258 251 244 242 240 239 236 232 231 230 227 225 225 224 224 227 230 231 229 224 221 222 222 221 219 218 217 215 212 211 211 211 213 213 214 214 212 212 210 211 219 219 217 222 222 225 235 236 232 227 223 224 225 224 220 218 220 220 219 217 214 213 213 212
339 336 333 336 336 331 327 324 317 312 309 313 313 311 311 313 311 310 312 312 300 284 277 265 255 248 242 241 240 239 238 234 233 231 228 227 226 227 230 233 233 231 228 224 223 224 223 221 220 220 219 217 216 216 215 217 217 216 217 215 213 213 211 211 218 218 216 222 225 227 236 239 233 226 225 226 228 228 224 221 223 222 220 219 216 214 212 212
340 336 336 340 339 335 333 327 318 314 314 317 315 313 312 311 311 310 309 306 292 277 272 262 254 249 244 242 240 242 244 239 234 235 234 231 230 230 233 234 233 231 227 223 221 222 222 220 220 221 220 218 216 214 214 215 215 216 218 215 213 214 214 216 219 217 217 221 223 227 236 238 232 222 221 224 226 227 223 221 223 224 223 220 217 215 213 212
340 336 339 344 345 342 339 330 321 316 317 319 317 316 316 314 314 314 307 300 286 271 264 261 257 249 245 246 243 245 248 242 239 241 240 236 234 233 234 235 233 229 224 222 221 221 220 218 217 217 215 214 212 209 211 213 214 216 218 217 216 215 214 216 218 217 220 221 218 221 230 232 226 219 217 219 221 223 220 218 221 222 221 219 216 214 212 212
342 340 340 344 348 351 348 337 329 322 320 322 319 317 317 315 316 316 306 294 286 275 264 260 260 253 251 254 253 251 249 246 247 247 244 243 240 235 233 234 233 229 226 226 225 221 218 217 215 211 209 208 207 206 207 212 216 217 217 218 219 216 214 214 214 215 219 219 215 217 224 228 228 225 224 221 220 224 224 222 221 220 217 215 213 212 211 211
345 345 344 344 347 352 349 343 339 331 326 327 323 320 321 318 314 314 305 287 282 281 267 257 261 261 260 263 262 258 254 253 255 252 247 245 243 237 233 233 233 231 228 228 227 219 216 217 215 212 212 212 213 213 212 216 221 220 220 222 221 219 217 214 212 214 215 215 216 218 221 228 232 229 226 223 220 225 229 224 220 216 212 210 209 209 210 211
347 347 347 346 345 346 344 343 342 335 330 331 328 324 328 327 320 314 301 278 279 281 266 256 264 267 265 268 266 262 261 261 260 257 251 246 243 238 234 231 231 230 226 227 227 221 216 217 216 214 215 216 219 221 221 221 223 221 223 224 222 221 220 215 214 214 211 211 218 220 218 224 230 227 223 221 220 225 232 224 215 211 207 205 204 205 207 208
349 348 348 348 345 343 342 340 339 334 331 333 332 329 334 335 329 319 299 275 279 280 266 261 269 272 270 270 268 267 271 271 266 261 255 247 242 238 234 230 227 225 223 223 224 219 215 216 216 216 219 220 220 222 222 222 220 220 222 224 223 222 220 219 217 213 209 212 218 218 214 219 225 224 220 218 218 223 228 218 209 205 202 201 200 200 202 202
350 349 348 347 345 343 340 338 337 336 333 333 333 335 338 337 332 323 304 283 277 276 272 268 271 278 276 271 271 273 275 275 271 265 257 249 243 236 232 229 225 221 220 220 220 217 214 215 216 217 223 224 219 216 216 217 218 220 222 223 224 223 220 219 218 212 210 215 218 216 215 218 220 219 218 220 219 222 220 209 203 200 195 194 195 196 198 199
350 348 347 346 343 340 340 340 341 341 339 337 336 337 339 336 333 326 308 289 278 275 277 276 276 281 279 275 276 277 274 272 271 267 259 251 244 234 228 226 223 219 218 217 217 215 212 214 216 217 220 220 214 209 210 215 217 219 221 223 225 223 218 216 216 212 211 215 217 215 217 219 217 214 216 219 218 217 211 202 200 199 193 191 191 194 196 198
348 347 347 346 343 342 342 343 345 345 343 343 342 340 339 338 335 326 307 289 279 278 278 278 281 282 280 280 282 280 278 276 272 269 261 251 242 233 227 223 220 218 216 213 213 213 211 212 214 215 215 213 209 210 215 218 217 215 217 223 225 221 213 209 211 212 211 211 212 212 213 216 215 214 214 213 211 211 209 204 203 201 195 191 192 194 196 198
350 349 348 348 345 345 345 345 346 347 346 346 346 344 342 342 339 328 313 299 291 291 286 281 283 284 283 286 286 284 285 283 277 272 264 253 243 235 229 222 216 215 215 211 210 210 209 210 212 211 211 210 210 214 217 214 212 212 212 216 218 214 207 204 207 212 213 211 210 210 211 214 215 214 211 207 205 209 207 203 204 205 201 198 197 196 197 198